Left ArrowRight Arrow

Hourly Observations for June 15, 2024

Temp ( °F °C ) Dew Point ( °F °C ) Humidity (%) Winds ( mph kmh ) Pressure ( in mb ) Visibility ( mi km ) Precip ( " mm )
12:56 am 00:56 Clear 78 25.6 77 25 96 96 SE 13 20 29.91 1013 10 16 0.00 0.00
1:56 am 01:56 Mostly Clear 77 25 77 25 100 100 SE 13 20 29.90 1013 10 16 0.00 0.00
2:56 am 02:56 Mostly Clear 76 24.4 76 24.4 100 100 SE 14 22 29.88 1012 10 16 0.00 0.00
3:56 am 03:56 Clear 76 24.4 N/A N/A SSE 13 20 29.88 1012 10 16 0.00 0.00
4:56 am 04:56 Clear 76 24.4 N/A N/A SSE 14 22 29.87 1012 10 16 0.00 0.00
5:56 am 05:56 Clear 75 23.9 N/A N/A SSE 13 20 29.88 1012 10 16 0.00 0.00
6:56 am 06:56 Sunny 75 23.9 N/A N/A SSE 12 19 29.89 1012 10 16 0.00 0.00
7:56 am 07:56 Sunny 78 25.6 77 25 96 96 S 13 20 29.89 1012 10 16 0.00 0.00
8:56 am 08:56 Sunny 81 27.2 73 22.8 77 77 SSW 18 30 29.90 1012 10 16 0.00 0.00
9:56 am 09:56 Sunny 85 29.4 72 22.2 65 65 SSW 18 30 29.88 1012 10 16 0.00 0.00
10:56 am 10:56 Sunny 87 30.6 71 21.7 59 59 S 20 31 29.86 1011 10 16 0.00 0.00
11:56 am 11:56 Sunny 89 31.7 69 20.6 52 52 S 23 37 29.84 1011 10 16 0.00 0.00
12:56 pm 12:56 Sunny 90 32.2 67 19.4 47 47 S 23 37 29.82 1010 10 16 0.00 0.00
1:56 pm 13:56 Mostly Sunny 91 32.8 65 18.3 42 42 S 21 33 29.81 1010 10 16 0.00 0.00
2:56 pm 14:56 Mostly Cloudy 91 32.8 64 17.8 41 41 S 20 31 29.79 1009 9 14 0.00 0.00
3:56 pm 15:56 Mostly Sunny 94 34.4 61 16.1 34 34 S 18 30 29.78 1008 10 16 0.00 0.00
4:56 pm 16:56 Mostly Sunny 90 32.2 62 16.7 40 40 SSW 15 24 29.78 1009 10 16 0.00 0.00
5:07 pm 17:07 Mostly Cloudy 82 28 64 18 55 55 WNW 12 19 29.76 1008 10 16 0.00 0.00
5:56 pm 17:56 Mostly Cloudy with Light Rain 81 27.2 70 21.1 69 69 S 13 20 29.77 1008 10 16 0.01 0.13
6:56 pm 18:56 Sunny 85 29.4 69 20.6 59 59 SSE 13 20 29.73 1007 10 16 0.01 0.13
7:56 pm 19:56 Sunny 85 29.4 65 18.3 51 51 S 21 33 29.72 1007 10 16 0.00 0.00
8:56 pm 20:56 Clear 82 27.8 67 19.4 60 60 SSE 22 35 29.72 1007 10 16 0.00 0.00
9:56 pm 21:56 Clear 81 27.2 67 19.4 62 62 S 20 31 29.74 1007 10 16 0.00 0.00
10:56 pm 22:56 Clear 81 27.2 68 20 65 65 S 21 33 29.75 1007 10 16 0.00 0.00
11:56 pm 23:56 Clear 80 26.7 69 20.6 69 69 S 21 33 29.75 1007 10 16 0.00 0.00

Powered by Vaisala Xweather